Regional Weather Roundup
Issued by NWS San Angelo, TX

Home | Current Version | Previous Version | Text Only | Print | Product List | Glossary On
Versions: 1 2 3 4 5 6 7 8 9 10 11 12 13 14 15 16 17 18 19 20 21 22 23 24 25 26 27 28 29 30 31 32 33 34 35 36 37 38 39 40 41 42 43 44 45 46 47 48 49 50
000
ASUS44 KSJT 250111
RWRSJT
WEST CENTRAL TEXAS REGIONAL WEATHER ROUNDUP
NATIONAL WEATHER SERVICE SAN ANGELO TX
800 PM CDT WED AUG 24 2016

NOTE: "FAIR" INDICATES FEW OR NO CLOUDS BELOW 12,000 FEET WITH NO
SIGNIFICANT WEATHER AND/OR OBSTRUCTIONS TO VISIBILITY.

TXZ049-054-064>066-071>073-076>078-098-099-113-114-127-128-139-140-
154-155-168>170-250200
...LOCATIONS ACROSS WEST CENTRAL TEXAS...

CITY           SKY/WX    TMP DP  RH WIND       PRES   REMARKS
SAN ANGELO     CLEAR     88  63  43 SE9       30.01R
ABILENE        CLEAR     86  66  51 S14       30.01S
DYESS AFB      CLEAR     88  66  47 SE9       29.99R
JUNCTION       CLEAR     87  65  47 SE12      30.03S
SWEETWATER     MOCLDY    80  64  56 W8        30.07R
BROWNWOOD      CLEAR     86  66  51 SE12      30.02S
COLEMAN        CLEAR     87  63  43 SE8       30.03R
SONORA         CLEAR     86  64  48 SE10G17   30.08R
OZONA          FAIR      84  61  45 S12       30.07R
BRADY          NOT AVBL
$$

TEXAS PANHANDLE/OKLAHOMA PANHANDLE

CITY           SKY/WX    TMP DP  RH WIND       PRES   REMARKS
AMARILLO       CLEAR     77  62  59 S15       30.05R
BORGER         CLOUDY    83  56  39 S20G25    30.00S
CANADIAN       CLEAR     82  66  58 S6        29.98S
DALHART        MOCLDY    74  59  59 NE8       30.06S
DUMAS          PTCLDY    73  59  62 NE7       30.05R
GUYMON         NOT AVBL
HEREFORD       PTCLDY    82  53  37 SW10G21   30.06S
PAMPA          PTCLDY    81  54  39 S17G30    30.04R
PERRYTON       CLOUDY    71  64  79 E8        30.03F
$$

SOUTHERN PANHANDLE/SOUTH PLAINS/ROLLING PLAINS

CITY           SKY/WX    TMP DP  RH WIND       PRES   REMARKS
LUBBOCK        LGT RAIN  76  60  57 SE10      30.07S
SNYDER           N/A     72  64  76 NW7       30.04F
CHILDRESS      CLOUDY    85  65  51 S5        29.98R
SEMINOLE       CLOUDY    74  61  64 SW8       30.09R
$$

PERMIAN BASIN

CITY           SKY/WX    TMP DP  RH WIND       PRES   REMARKS
MIDLAND        PTCLDY    77  62  59 CALM      30.06F
ODESSA         PTCLDY    76  62  62 CALM      30.07F
WINK           PTCLDY    73  64  73 CALM      30.04S
$$

FAR WEST/SOUTHWEST MOUNTAINS/TRANS PECOS

CITY           SKY/WX    TMP DP  RH WIND       PRES   REMARKS
ALPINE         CLOUDY    74  65  75 E3        30.20S
DRYDEN           N/A     86  64  47 SE10      30.03R
EL PASO        PTCLDY    88  46  23 SW10      30.01F
FORT STOCKTON  PTCLDY    75  63  66 SE7       30.08S
GUADALUPE PASS CLOUDY    77  57  50 SW13      30.18S
MARFA          CLOUDY   N/A N/A N/A SE3       30.18S
PECOS          PTCLDY    74  66  75 SE5       30.03F
$$

DALLAS/FORT WORTH METROPLEX

CITY           SKY/WX    TMP DP  RH WIND       PRES   REMARKS
DFW AIRPORT    PTCLDY    89  68  49 S13       30.01S
FTW MEACHAM    CLEAR     90  69  50 SE15      30.00S
DAL-EXECUTIVE  CLEAR     87  70  56 S8        30.03R
GRAND PRAIRIE  CLEAR     88  68  51 SE9       30.03S
ADDISON        PTCLDY    88  68  51 SE12G23   30.02S
MESQUITE       CLEAR     84  70  61 SE7       30.03F
LANCASTER      CLEAR     87  71  59 SE5       30.04S
$$

NORTH CENTRAL TEXAS

CITY           SKY/WX    TMP DP  RH WIND       PRES   REMARKS
SHRMAN/DENISON CLEAR     87  70  58 SE10      30.03R
GAINESVILLE      N/A     84  68  58 S9        30.02S
BRIDGEPORT     CLEAR     86  70  58 S7        30.02R
DENTON         CLEAR     86  70  58 SE14      30.00S
WAXAHACHIE     CLEAR     85  71  62 SE5       30.04S
GRANBURY       CLEAR     90  69  50 SE9       30.02S
$$

WESTERN NORTH TEXAS

CITY           SKY/WX    TMP DP  RH WIND       PRES   REMARKS
WICHITA FALLS  CLEAR     89  66  46 S17       29.95S
VERNON         CLOUDY    82  58  43 N7        29.98R
BRECKENRIDGE   CLEAR     89  64  44 S9        29.99R
COMANCHE       CLEAR     87  67  51 S8        30.02F
$$

CENTRAL AND SOUTH CENTRAL TEXAS

CITY           SKY/WX    TMP DP  RH WIND       PRES   REMARKS
AUSTIN/BERGSTM PTCLDY    87  74  64 SE6       30.01S
WACO           CLEAR     87  71  58 S8        30.03R
HILLSBORO      PTCLDY    85  70  59 SE9       30.03S
TEMPLE         CLEAR     86  70  58 S8        30.04R
KILLEEN-GRAY   CLEAR     83  69  64 SE7       30.04R
FORT HOOD      CLEAR     85  69  57 S7        30.02R
GEORGETOWN     CLEAR     88  68  51 SE9       30.03S
LAGO VISTA     FAIR      84  68  58 SE3       30.06S
SAN MARCOS     CLEAR     84  70  61 SE6       30.04S
NEW BRAUNFELS  CLEAR     86  69  56 SE9       30.01R
RANDOLPH AFB   PTCLDY    82  74  76 SE6       30.02R
SAN ANTONIO    PTCLDY    86  69  56 SE13      30.02S
STINSON        MOCLDY    88  70  55 E9        29.99S
PLEASANTON     NOT AVBL
LA GRANGE      CLEAR     86  76  70 S3        30.01S
GIDDINGS       CLEAR     84  72  66 SE3       30.07R
$$

EAST TEXAS

CITY           SKY/WX    TMP DP  RH WIND       PRES   REMARKS
PARIS          CLEAR     84  70  61 S8        30.05S
CLARKSVILLE    NOT AVBL
TYLER          PTCLDY    86  76  71 SE5       30.06R
LONGVIEW       CLEAR     84  76  76 SE5       30.05S
PALESTINE      PTCLDY    83  78  83 CALM      30.06R
NACOGDOCHES    CLEAR    N/A N/A N/A SE5       30.05R
$$

TEXAS HILL COUNTRY AND EDWARDS PLATEAU

CITY           SKY/WX    TMP DP  RH WIND       PRES   REMARKS
LLANO          CLEAR     86  72  62 SE5       30.06R
HORSESHOE BAY  FAIR      85  69  57 SE5       30.03S
KERRVILLE      CLEAR     83  70  65 SE8       30.06R
FREDERICKSBRG  CLEAR     82  65  55 SE5       30.06S
ROCKSPRINGS    HAZE      82  64  54 SE9       30.08S VSB 1/4
HONDO          CLEAR     87  70  56 SE10      30.01S
UVALDE         CLEAR     85  70  60 E9        30.00R
DEL RIO        CLEAR     89  62  40 SE10      29.95R
$$

SOUTHEAST TEXAS

CITY           SKY/WX    TMP DP  RH WIND       PRES   REMARKS
COLLEGE STN    PTCLDY    87  74  64 SE7       30.03S
CALDWELL       CLEAR     84  73  70 CALM      30.06S
CROCKETT       MOCLDY    82  81  94 NW3       30.09R
BRENHAM        CLOUDY    87  73  63 SE3       30.04S
HUNTSVILLE     CLOUDY    84  73  69 CALM      30.06S
CONROE         PTCLDY    83  77  82 SE5       30.06R
HOUSTON BUSH   PTCLDY    83  74  74 SE7       30.05S
HOUSTON HOBBY  PTCLDY    82  76  81 S7        30.04F
PERLAND        CLEAR     87  76  69 S6        30.07R
WHARTON        CLEAR     82  76  80 SE6       30.05R
$$

THE UPPER TEXAS COAST

CITY           SKY/WX    TMP DP  RH WIND       PRES   REMARKS
ORANGE         PTCLDY    84  72  67 S3        30.08S
PORT ARTHUR    CLEAR     81  75  82 S6        30.05F
GALVESTON      CLEAR     85  77  77 SE10      30.06S
ANGLETON       CLEAR     85  78  80 SE6       30.05S
BAY CITY       CLEAR     85  76  76 SE5       30.05R
$$

TEXAS COASTAL BEND, RIO GRANDE PLAINS DEEP SOUTH TEXAS

CITY           SKY/WX    TMP DP  RH WIND       PRES   REMARKS
VICTORIA       CLEAR     83  74  74 SE9       30.03R
BEEVILLE       FAIR      85  74  70 SE7       30.00S
ROCKPORT       PTCLDY    85  76  74 E14       30.01R
PORT ARANSAS   PTCLDY    85  78  80 SE12      30.01S
PORT LAVACA    PTCLDY    83  78  84 SE7       30.03R
CORPUS CHRISTI PTCLDY    85  74  69 SE16G22   30.00R
KINGSVILLE NAS PTCLDY    83  76  79 SE14      29.98S
COTULLA        CLEAR     91  68  46 E8        29.95S
LAREDO         CLEAR     93  63  36 E12       29.93R
BROWNSVILLE    CLEAR     84  75  74 SE16      30.00R
PORT ISABEL    CLEAR     85  75  72 SE17      29.99R
HEBBRONVILLE   CLEAR     89  72  57 SE15G23   29.98R
MCALLEN        CLEAR     90  70  51 SE21      29.97R
WESLACO        CLEAR    N/A N/A N/A SE16G23   29.97R
FALFURRIAS     CLEAR     86  72  63 E13G21    29.97R
EDINBURG       CLEAR     90  66  44 SE14      29.97R
$$




USA.gov is the U.S. government's official web portal to all federal, state and local government web resources and services.